Showing default

NUVIEW BRAVO, 62457

Orbit data source: Space-Track

NUVIEW BRAVO, 62457 is a UK payload satellite in GEO that was launched on Sun, 29 Dec 2024 UTC via an FALCON 9 launch vehicle from the Air Force Eastern Test Range (AFETR). Payload-class satellites include a variety of spacecraft equipped with specific instruments for various scientific and technological missions. These include communications satellites like Starlink; space stations such as the ISS; scientific satellites like the Hubble; Earth observation satellites from companies like Planet Labs, Umbra, and HawkEye 360; GPS; miniature CubeSats for education and research; and military/defense satellites.

Loading next visibility...
Identifier
62457, 2024-252D
Orbit
GEO
Country
Flag of UKUK
Related business
Manufacturer
Astranis
Mission
Operational Commercial Communications
Bus & Motor
MICROGEO, EP
Mass
400 kg wet, 400 kg dry
Launch date (UTC)
2024-12-29 (1 year ago)
Launch vehicle
FALCON 9
Launch site
Air Force Eastern Test Range (AFETR)
Object type
Payload
Rocket body
Debris
Shape & HBR
Box + 22 Pan, 5.0 m
Radar Cross Section
41.175 m²

Expand to show TLE details & history
Last TLE update: 16 hours ago

TLE from 16 hours ago
0 NUVIEW BRAVO
1 62457U 24252D   26149.98762354 -.00000203  00000-0  00000+0 0  9990
2 62457   0.0695 140.6458 0001875 332.2808  47.0231  1.00273588  3612
Epoch: 2026-05-29T23:42Z
TLE epoch observation values (Epoch: 2026-05-29T23:42:10.673Z)
Latitude
0.00557°
Longitude
-83.09412°
Altitude
35,780.224 km
Speed
3.075 km/s
True Right ascension
10h 39m 50s
True Declination
0° 00' 20"
Sunlit
Object was in daylight at epoch
Visualization orbit readout
Latitude
Unknown
Longitude
Unknown
Altitude
Unknown
Speed
Unknown
Apparent Right ascension
Unknown
Apparent Declination
Unknown
Sunlit
N/A
Visualization observer readout
Local Sidereal Time
01:36:15
Azimuth
Unknown
Elevation
Unknown
Doppler factor
Unknown
Orbital elements
Apogee altitude
35,795.066 km
Perigee altitude
35,779.254 km
Semi-major axis
42,165.297 km
Eccentricity
0.00019
Inclination
0.0695°
RAAN
140.6458°
Arg. of periapsis
332.2808°
True anomaly
47.03882°
Mean anomaly
47.0231°
Eccentric anomaly
47.03096°
Mean motion
0.25067 °/min
Orbital period
1,436.12 mins
BSTAR
0
Loading maneuver chart data...
Computing Atmospheric mass density...
Loading historical data...
Loading historical data...
Loading historical data...
Loading historical data...
Loading historical data...
Loading historical data...
Loading historical data...
Other satellites on launch #252 in the year 2024 (2024-12-29 UTC)

Documentation

Showing up to 5 results
|